Location: Unspecified
(33.9239°N, 118.0544°W)
Time: 06:33:50
(UTC-07:00)

Cosmos 1674 - Visible Passes

Search period start: 17 September 2014 00:00
Search period end: 27 September 2014 00:00
Orbit: 514 x 543 km, 82.5° (Epoch: 17 September)

Date Brightness Start Highest point End Pass type
(mag) Time Alt. Az. Time Alt. Az. Time Alt. Az.
23 Sep 5.7 21:18:29 10° N 21:18:37 11° NNW 21:18:37 11° NNW visible
24 Sep 5.4 21:07:23 10° N 21:07:57 14° N 21:07:57 14° N visible
25 Sep 5.1 20:56:18 10° N 20:57:19 17° N 20:57:19 17° N visible
26 Sep 4.7 20:45:12 10° N 20:46:44 23° N 20:46:44 23° N visible
